When you browse on this site, cookies collect data to enhance your experience and personalize the content and advertising you see.
Visit our Privacy Policy to learn more. By continuing to use the site, you agree to this use of cookies and data.
  • In United Kingdom
  • List of Countries
  • For 7 days
  • Water Temperature
  • Weather Map
  • Weather Widgets
  • user-avatar
    Login

    Hourly Weather Sucre

    Today, 16 October, Wednesday

    Time Temperature Precipitation Wind Pressure Humidity
    00:00 +14°C° 0.1 mm 2 mps 542 mmHg 79%
    01:00 +14°C° 0.1 mm 2 mps 542 mmHg 81%
    02:00 +14°C° 0 mm 2 mps 541 mmHg 84%
    03:00 +13°C° 0.1 mm 2 mps 541 mmHg 85%
    04:00 +13°C° 0.1 mm 2 mps 541 mmHg 85%
    05:00 +13°C° 0.1 mm 2 mps 541 mmHg 86%
    06:00 +13°C° 0 mm 2 mps 541 mmHg 84%
    07:00 +14°C° 0 mm 2 mps 542 mmHg 83%
    08:00 +14°C° 0 mm 2 mps 542 mmHg 81%
    09:00 +15°C° 0 mm 2 mps 543 mmHg 77%
    10:00 +16°C° 0 mm 3 mps 543 mmHg 72%
    11:00 +17°C° 0 mm 3 mps 543 mmHg 67%
    12:00 +17°C° 0.1 mm 3 mps 542 mmHg 65%
    13:00 +18°C° 0.1 mm 4 mps 542 mmHg 62%
    14:00 +19°C° 0.1 mm 4 mps 542 mmHg 60%
    15:00 +18°C° 0.1 mm 4 mps 541 mmHg 61%
    16:00 +18°C° 0.1 mm 4 mps 541 mmHg 62%
    17:00 +18°C° 0.1 mm 4 mps 540 mmHg 63%
    18:00 +17°C° 0.1 mm 4 mps 540 mmHg 66%
    19:00 +16°C° 0.1 mm 3 mps 541 mmHg 69%
    20:00 +16°C° 0.1 mm 3 mps 541 mmHg 72%
    21:00 +14°C° 0 mm 3 mps 541 mmHg 75%
    22:00 +15°C° 0 mm 2 mps 541 mmHg 77%
    23:00 +14°C° 0 mm 2 mps 541 mmHg 80%

    Tomorrow, 17 October, Thursday

    Time Temperature Precipitation Wind Pressure Humidity
    00:00 +14°C° 0.3 mm 2 mps 541 mmHg 81%
    01:00 +14°C° 0.3 mm 2 mps 541 mmHg 83%
    02:00 +14°C° 0.3 mm 2 mps 540 mmHg 85%
    03:00 +13°C° 0.1 mm 2 mps 540 mmHg 86%
    04:00 +13°C° 0.1 mm 2 mps 540 mmHg 87%
    05:00 +13°C° 0.1 mm 1 mps 540 mmHg 88%
    06:00 +13°C° 0.1 mm 2 mps 540 mmHg 86%
    07:00 +13°C° 0.1 mm 2 mps 541 mmHg 84%
    08:00 +14°C° 0.1 mm 2 mps 541 mmHg 82%
    09:00 +15°C° 0 mm 2 mps 541 mmHg 76%
    10:00 +16°C° 0 mm 3 mps 542 mmHg 70%
    11:00 +17°C° 0 mm 3 mps 542 mmHg 64%
    12:00 +18°C° 0.3 mm 3 mps 542 mmHg 60%
    13:00 +19°C° 0.3 mm 4 mps 542 mmHg 56%
    14:00 +20°C° 0.3 mm 4 mps 542 mmHg 51%
    15:00 +20°C° 1.5 mm 4 mps 541 mmHg 54%
    16:00 +19°C° 1.5 mm 5 mps 541 mmHg 56%
    17:00 +17°C° 1.5 mm 5 mps 540 mmHg 59%
    18:00 +18°C° 2.3 mm 4 mps 540 mmHg 63%
    19:00 +17°C° 2.3 mm 4 mps 541 mmHg 66%
    20:00 +16°C° 2.3 mm 3 mps 541 mmHg 70%
    21:00 +16°C° 1.8 mm 2 mps 541 mmHg 72%
    22:00 +15°C° 1.8 mm 1 mps 541 mmHg 73%
    23:00 +14°C° 1.8 mm 0 mps 541 mmHg 75%

    Day after tomorrow, 18 October, Friday

    Time Temperature Precipitation Wind Pressure Humidity
    00:00 +15°C° 0.2 mm 1 mps 541 mmHg 76%
    01:00 +15°C° 0.2 mm 1 mps 541 mmHg 77%
    02:00 +14°C° 0.2 mm 1 mps 541 mmHg 78%
    03:00 +14°C° 0.4 mm 1 mps 541 mmHg 80%
    04:00 +14°C° 0.4 mm 2 mps 541 mmHg 82%
    05:00 +14°C° 0.4 mm 2 mps 541 mmHg 84%
    06:00 +14°C° 0.9 mm 2 mps 541 mmHg 82%
    07:00 +14°C° 0.9 mm 2 mps 542 mmHg 80%
    08:00 +14°C° 0.9 mm 2 mps 542 mmHg 78%
    09:00 +14°C° 1 mm 3 mps 542 mmHg 75%
    10:00 +16°C° 1 mm 3 mps 542 mmHg 71%
    11:00 +17°C° 1 mm 3 mps 543 mmHg 67%
    12:00 +17°C° 0.5 mm 4 mps 542 mmHg 65%
    13:00 +18°C° 0.5 mm 4 mps 542 mmHg 62%
    14:00 +18°C° 0.5 mm 4 mps 542 mmHg 60%
    15:00 +18°C° 0.3 mm 4 mps 541 mmHg 61%
    16:00 +18°C° 0.3 mm 4 mps 541 mmHg 63%
    17:00 +17°C° 0.3 mm 4 mps 541 mmHg 64%
    18:00 +17°C° 0.4 mm 3 mps 541 mmHg 68%
    19:00 +16°C° 0.4 mm 3 mps 541 mmHg 72%
    20:00 +14°C° 0.4 mm 3 mps 541 mmHg 76%
    21:00 +14°C° 0.4 mm 3 mps 541 mmHg 78%
    22:00 +14°C° 0.4 mm 2 mps 541 mmHg 80%
    23:00 +14°C° 0.4 mm 2 mps 542 mmHg 81%

    19 October, Saturday

    Time Temperature Precipitation Wind Pressure Humidity
    00:00 +14°C° 0.3 mm 2 mps 541 mmHg 83%
    01:00 +13°C° 0.3 mm 2 mps 541 mmHg 84%
    02:00 +13°C° 0.3 mm 2 mps 541 mmHg 85%
    03:00 +13°C° 0.2 mm 2 mps 541 mmHg 86%
    04:00 +13°C° 0.2 mm 2 mps 541 mmHg 86%
    05:00 +12°C° 0.2 mm 1 mps 541 mmHg 87%
    06:00 +13°C° 0.5 mm 1 mps 541 mmHg 85%
    07:00 +13°C° 0.5 mm 1 mps 542 mmHg 83%
    08:00 +13°C° 0.5 mm 1 mps 542 mmHg 81%
    09:00 +14°C° 0.6 mm 1 mps 542 mmHg 79%
    10:00 +14°C° 0.6 mm 1 mps 542 mmHg 77%
    11:00 +14°C° 0.6 mm 1 mps 542 mmHg 74%
    12:00 +15°C° 0.7 mm 1 mps 542 mmHg 72%
    13:00 +15°C° 0.7 mm 1 mps 541 mmHg 70%
    14:00 +16°C° 0.7 mm 1 mps 541 mmHg 68%
    15:00 +16°C° 1.6 mm 1 mps 541 mmHg 70%
    16:00 +15°C° 1.6 mm 1 mps 540 mmHg 72%
    17:00 +15°C° 1.6 mm 1 mps 539 mmHg 74%
    18:00 +15°C° 0.6 mm 1 mps 539 mmHg 77%
    19:00 +14°C° 0.6 mm 2 mps 540 mmHg 80%
    20:00 +14°C° 0.6 mm 2 mps 540 mmHg 83%
    21:00 +14°C° 0 mm 2 mps 540 mmHg 84%
    22:00 +13°C° 0 mm 2 mps 540 mmHg 86%
    23:00 +13°C° 0 mm 2 mps 540 mmHg 87%

    20 October, Sunday

    Time Temperature Precipitation Wind Pressure Humidity
    00:00 +13°C° 0 mm 2 mps 540 mmHg 87%
    01:00 +13°C° 0 mm 1 mps 540 mmHg 87%
    02:00 +13°C° 0 mm 1 mps 540 mmHg 86%
    03:00 +13°C° 0 mm 1 mps 540 mmHg 86%
    04:00 +13°C° 0 mm 1 mps 539 mmHg 87%
    05:00 +13°C° 0 mm 1 mps 539 mmHg 87%
    06:00 +13°C° 0 mm 1 mps 540 mmHg 81%
    07:00 +14°C° 0 mm 1 mps 540 mmHg 74%
    08:00 +14°C° 0 mm 1 mps 541 mmHg 68%
    09:00 +16°C° 0 mm 1 mps 542 mmHg 59%
    10:00 +18°C° 0 mm 2 mps 542 mmHg 49%
    11:00 +19°C° 0 mm 2 mps 543 mmHg 40%
    12:00 +20°C° 0 mm 3 mps 543 mmHg 37%
    13:00 +21°C° 0 mm 3 mps 542 mmHg 33%
    14:00 +24°C° 0 mm 3 mps 542 mmHg 30%
    15:00 +23°C° 0 mm 4 mps 542 mmHg 30%
    16:00 +22°C° 0 mm 4 mps 542 mmHg 30%
    17:00 +22°C° 0 mm 4 mps 541 mmHg 30%
    18:00 +21°C° 0 mm 3 mps 541 mmHg 40%
    19:00 +19°C° 0 mm 3 mps 541 mmHg 49%
    20:00 +18°C° 0 mm 2 mps 541 mmHg 59%
    21:00 +17°C° 0.2 mm 2 mps 541 mmHg 64%
    22:00 +16°C° 0.2 mm 2 mps 541 mmHg 70%
    23:00 +16°C° 0.2 mm 2 mps 542 mmHg 75%

    21 October, Monday

    Time Temperature Precipitation Wind Pressure Humidity
    00:00 +15°C° 0.1 mm 2 mps 541 mmHg 78%
    01:00 +15°C° 0.1 mm 2 mps 541 mmHg 80%
    02:00 +14°C° 0.1 mm 2 mps 541 mmHg 83%
    03:00 +14°C° 0.1 mm 2 mps 540 mmHg 84%
    04:00 +14°C° 0.1 mm 2 mps 540 mmHg 86%
    05:00 +13°C° 0.1 mm 2 mps 540 mmHg 88%
    06:00 +14°C° 0.1 mm 2 mps 541 mmHg 83%
    07:00 +14°C° 0.1 mm 2 mps 541 mmHg 78%
    08:00 +15°C° 0.1 mm 2 mps 542 mmHg 73%
    09:00 +16°C° 0 mm 2 mps 542 mmHg 65%
    10:00 +17°C° 0 mm 3 mps 543 mmHg 58%
    11:00 +18°C° 0 mm 3 mps 543 mmHg 51%
    12:00 +19°C° 0.1 mm 4 mps 543 mmHg 49%
    13:00 +20°C° 0.1 mm 4 mps 543 mmHg 48%
    14:00 +21°C° 0.1 mm 4 mps 542 mmHg 46%
    15:00 +20°C° 0.4 mm 4 mps 542 mmHg 50%
    16:00 +19°C° 0.4 mm 4 mps 541 mmHg 55%
    17:00 +18°C° 0.4 mm 4 mps 540 mmHg 60%
    18:00 +17°C° 0.1 mm 4 mps 540 mmHg 64%
    19:00 +16°C° 0.1 mm 3 mps 540 mmHg 68%
    20:00 +14°C° 0.1 mm 3 mps 541 mmHg 73%
    21:00 +13°C° 0 mm 3 mps 541 mmHg 74%
    22:00 +13°C° 0 mm 3 mps 541 mmHg 76%
    23:00 +13°C° 0 mm 2 mps 541 mmHg 77%
    Show more